[[{"header":{"parameterUnit":"m.s-1","parameterCategory":2,"la1":30.2991,"la2":30.254,"lo1":-89.0895,"lo2":-89.0444,"dy":0.0017,"dx":0.0017,"nx":28,"ny":28,"refTime":"2025-01-03T03:00:00:Z","depth":"0","parameterNumber":2,"parameterNumberName":"U-component_of_CURRENTS"},"data":[0,0,0,0,0,0,0,0,0,0,0,0,0,0,0,0,0,0,0,0,0,0,0,0,0,0,0,0,0,0,0,0,0,0,0,0,0,0,0,0,0,0,0,0,0,0,0,0,0,0,0,0,0,0,0,0,0,0,0.1859,0.186,0,0.1904,0.1904,0.1904,0.192,0.1921,0.1921,0.1922,0.1913,0.1913,0.1912,0,0,0,0,0,0,0,0,0,0,0,0,0,0.1809,0.1809,0.1859,0.186,0.1861,0.1904,0.1904,0.1904,0.192,0.1921,0.1921,0.1922,0.1914,0.1913,0.1912,0,0,0,0,0,0,0,0,0,0,0,0,0,0.1834,0.1809,0.1858,0.1879,0.1882,0.1904,0.1904,0.1904,0.192,0.1921,0.1922,0.1922,0.1914,0.1913,0.1912,0.1893,0,0,0.1909,0.1909,0,0,0,0,0,0,0,0,0.1832,0.1835,0.1875,0.1878,0.1881,0.1913,0.1883,0.19,0.192,0.1899,0.1922,0.1922,0.1912,0.1911,0.191,0.1893,0.1893,0.1909,0.1908,0.1908,0.1908,0,0,0,0,0,0,0,0.183,0.1833,0.187,0.1876,0.188,0.1894,0.1897,0.1886,0.1895,0.1901,0.1904,0.1918,0.1912,0.1911,0.191,0.1893,0.1909,0.1908,0.1908,0.1907,0.1893,0.1893,0,0,0,0,0,0,0.1835,0.1831,0.1869,0.1872,0.1865,0.1894,0.1898,0.1897,0.1897,0.19,0.1918,0.1919,0.1912,0.1911,0.191,0.1933,0.1908,0.1907,0.1907,0.1893,0.1893,0.1893,0,0,0,0,0,0,0.1834,0.1837,0.1867,0.1859,0.1864,0.1895,0.1893,0.1897,0.1903,0.1911,0.1912,0.1921,0.1913,0.1911,0.1905,0.1931,0.1907,0.1906,0.1893,0.1893,0.1893,0.1951,0,0,0,0,0,0,0.1832,0.1836,0.1832,0.1858,0.1865,0.1881,0.1894,0.1898,0.1913,0.1915,0.1914,0.1914,0.1913,0.1906,0.1904,0.193,0.1905,0.1893,0.1893,0.1893,0.1949,0.1954,0.1957,0,0,0,0,0,0.1829,0.1823,0.1831,0.1836,0.1859,0.1881,0.1885,0.1905,0.1913,0.1912,0.1914,0.1914,0.1907,0.1905,0.1902,0.1929,0.1892,0.1893,0.1893,0.1947,0.1953,0.1957,0,0,0,0,0,0,0.1796,0.1826,0.1835,0.1836,0.1859,0.1887,0.189,0.1905,0.1905,0.1906,0.1909,0.1908,0.1916,0.1904,0.1902,0.1924,0.1902,0.1902,0.1945,0.1949,0.1953,0.1956,0.1904,0,0,0,0,0,0.1789,0.1792,0.1823,0.1825,0.1835,0.1861,0.1872,0.1888,0.1899,0.19,0.1904,0.1906,0.1914,0.1916,0.1913,0.1917,0.1914,0.1932,0.1936,0.194,0.1939,0.1956,0.1962,0.1895,0.1895,0.1895,0,0,0.1779,0.1795,0.1797,0.1819,0.1835,0.1857,0.1867,0.1884,0.1908,0.1897,0.1915,0.1915,0.1915,0.193,0.1933,0.1925,0.1959,0.1941,0.1944,0.1941,0.1957,0.1964,0.197,0.1895,0.1895,0.1895,0,0,0.1768,0.1772,0.1776,0.1795,0.1826,0.1847,0.1854,0.1883,0.1898,0.1913,0.1921,0.1933,0.1935,0.1952,0.196,0.1977,0.1977,0.1978,0.2008,0.2025,0.2031,0.2036,0.2051,0.2057,0.1985,0.1985,0.1985,0,0.176,0.1766,0.1781,0.1795,0.1817,0.1846,0.1865,0.1886,0.1911,0.1926,0.1923,0.1949,0.1951,0.1986,0.2,0.1991,0.1995,0.1995,0.2032,0.2037,0.2042,0.2055,0.2061,0.1988,0.1987,0.1987,0.1987,0,0.1757,0.1768,0.1772,0.1803,0.1824,0.1842,0.1884,0.1903,0.1926,0.1951,0.1981,0.1987,0.2003,0.2016,0.2018,0.2057,0.2049,0.2036,0.2025,0.2052,0.2064,0.207,0.1992,0.1991,0.199,0.1989,0,0,0.173,0.1766,0.1767,0.1787,0.1831,0.185,0.1891,0.1936,0.1964,0.199,0.2022,0.2054,0.2057,0.2064,0.2073,0.2095,0.214,0.2084,0.2083,0.2108,0.2179,0.2146,0.2148,0.2138,0.2139,0.2139,0.2179,0,0.1729,0.1754,0.1776,0.1811,0.1831,0.1872,0.1909,0.1952,0.1985,0.2019,0.2048,0.2071,0.2078,0.2086,0.2115,0.2127,0.2155,0.2131,0.214,0.214,0.2115,0.2153,0.1971,0.1988,0.2184,0.2185,0.2186,0,0.1722,0.1741,0.1769,0.1822,0.1834,0.1861,0.1922,0.1959,0.2015,0.2038,0.2073,0.2087,0.2132,0.2122,0.2177,0.2161,0.2176,0.2187,0.2189,0.2138,0.2116,0.1989,0.199,0.1848,0.2193,0.2193,0.2192,0,0.1698,0.174,0.1763,0.178,0.184,0.1862,0.1899,0.1958,0.199,0.2044,0.2063,0.2113,0.2131,0.2164,0.2189,0.2187,0.2236,0.2232,0.2219,0.2217,0.2052,0.2033,0.192,0.2269,0.2269,0.2269,0.2268,0,0.1693,0.1713,0.1751,0.1764,0.1795,0.1844,0.1882,0.1927,0.1981,0.2016,0.2064,0.209,0.2142,0.2173,0.2198,0.2223,0.2243,0.2231,0.2228,0.2067,0.205,0.1911,0.1898,0.227,0.227,0.2269,0.2269,0,0.1672,0.1696,0.1723,0.1771,0.1784,0.1807,0.1865,0.1895,0.1949,0.1994,0.2008,0.2078,0.2136,0.2179,0.223,0.2225,0.2161,0.2251,0.2061,0.2035,0.19,0.1899,0.1815,0.1774,0.2256,0.2255,0.2255,0,0.1671,0.1677,0.1711,0.1722,0.1743,0.1778,0.1803,0.1868,0.1903,0.1983,0.2003,0.207,0.2113,0.2174,0.2163,0.2194,0.2139,0.205,0.2019,0.1872,0.1867,0.1834,0.1805,0.1825,0.1821,0.1818,0.1816,0,0.1666,0.1669,0.1691,0.17,0.1721,0.1747,0.179,0.1808,0.1887,0.1918,0.197,0.2004,0.2057,0.1999,0.2032,0.2028,0.1894,0.1989,0.1865,0.1554,0.1478,0.1441,0.1831,0.1787,0.179,0.1792,0.1793,0.1795,0.1664,0.1671,0.1684,0.1692,0.1705,0.1719,0.172,0.1764,0.1797,0.1821,0.1888,0.1873,0.1804,0.1826,0.1813,0.1607,0.1744,0.1508,0.1532,0.1522,0.1432,0.1775,0.1713,0.1715,0.1717,0.1719,0.1721,0,0.167,0.1672,0.1678,0.1686,0.1668,0.1688,0.1712,0.1689,0.1693,0.1707,0.1719,0.1575,0.1461,0.1399,0.1203,0.1108,0.1071,0.1058,0.0917,0.0928,0.1218,0.1142,0.0914,0.0914,0.0914,0.0914,0.0914,0.0914,0.1678,0.1684,0.1682,0.1649,0.1634,0.1599,0.1592,0.1555,0.1538,0.1429,0.1329,0.1293,0.1137,0.0872,0.0655,0.0645,0.0587,0.0541,0.0641,0.0753,0.0794,0.0834,0.0752,0.0446,0.0445,0.0222,0.022,0.0218]},{"header":{"parameterUnit":"m.s-1","parameterCategory":2,"la1":30.2991,"la2":30.254,"lo1":-89.0895,"lo2":-89.0444,"dy":0.0017,"dx":0.0017,"nx":28,"ny":28,"refTime":"2025-01-03T03:00:00:Z","depth":"0","parameterNumber":3,"parameterNumberName":"V-component_of_CURRENTS"},"data":[0,0,0,0,0,0,0,0,0,0,0,0,0,0,0,0,0,0,0,0,0,0,0,0,0,0,0,0,0,0,0,0,0,0,0,0,0,0,0,0,0,0,0,0,0,0,0,0,0,0,0,0,0,0,0,0,0,0,-0.0834,-0.0836,0,-0.0918,-0.0919,-0.0919,-0.0966,-0.0966,-0.0967,-0.0967,-0.1078,-0.108,-0.1083,0,0,0,0,0,0,0,0,0,0,0,0,0,-0.0739,-0.074,-0.0834,-0.0836,-0.0837,-0.0918,-0.0919,-0.0919,-0.0965,-0.0966,-0.0967,-0.0967,-0.1077,-0.108,-0.1083,0,0,0,0,0,0,0,0,0,0,0,0,0,-0.0792,-0.074,-0.0834,-0.0873,-0.0878,-0.0918,-0.0919,-0.092,-0.0965,-0.0966,-0.0967,-0.0968,-0.1076,-0.108,-0.1083,-0.1089,0,0,-0.1094,-0.1096,0,0,0,0,0,0,0,0,-0.0789,-0.0795,-0.0866,-0.0871,-0.0876,-0.0936,-0.0926,-0.0979,-0.0965,-0.0927,-0.0967,-0.0968,-0.1036,-0.1043,-0.1049,-0.1094,-0.1099,-0.1095,-0.1097,-0.1098,-0.1099,0,0,0,0,0,0,0,-0.0785,-0.0792,-0.0863,-0.0868,-0.0874,-0.0896,-0.0903,-0.0936,-0.0972,-0.0931,-0.0935,-0.0952,-0.1038,-0.1046,-0.1052,-0.11,-0.1095,-0.1098,-0.11,-0.1101,-0.1215,-0.1216,0,0,0,0,0,0,-0.0783,-0.0788,-0.086,-0.0866,-0.0839,-0.0897,-0.0905,-0.0912,-0.0972,-0.0983,-0.0951,-0.0954,-0.1039,-0.1048,-0.1057,-0.1117,-0.1098,-0.1102,-0.1104,-0.1214,-0.1216,-0.1216,0,0,0,0,0,0,-0.078,-0.0788,-0.0857,-0.0833,-0.0844,-0.0898,-0.0905,-0.0914,-0.0923,-0.0988,-0.0999,-0.0952,-0.104,-0.1051,-0.1095,-0.112,-0.1103,-0.1107,-0.1213,-0.1215,-0.1216,-0.1205,0,0,0,0,0,0,-0.0776,-0.0786,-0.0785,-0.0833,-0.0846,-0.0875,-0.0905,-0.0915,-0.0934,-0.0938,-0.0992,-0.1003,-0.1042,-0.1089,-0.1098,-0.1124,-0.111,-0.1212,-0.1214,-0.1216,-0.1205,-0.1206,-0.1207,0,0,0,0,0,-0.0773,-0.077,-0.0784,-0.0794,-0.0844,-0.0875,-0.0882,-0.0921,-0.0933,-0.0931,-0.0979,-0.1002,-0.1106,-0.1092,-0.1103,-0.1131,-0.1212,-0.1214,-0.1215,-0.1204,-0.1206,-0.1207,0,0,0,0,0,0,-0.0739,-0.0776,-0.0793,-0.0805,-0.0836,-0.0884,-0.0889,-0.0913,-0.0946,-0.0952,-0.1006,-0.1021,-0.1072,-0.1097,-0.108,-0.1169,-0.1165,-0.1169,-0.1153,-0.1155,-0.1156,-0.1132,-0.1113,0,0,0,0,0,-0.0729,-0.0731,-0.0776,-0.0787,-0.0795,-0.0838,-0.0854,-0.0879,-0.092,-0.0934,-0.098,-0.1032,-0.1087,-0.1115,-0.1159,-0.1198,-0.1186,-0.1225,-0.1227,-0.1228,-0.1216,-0.1218,-0.1217,-0.1223,-0.1223,-0.1223,0,0,-0.0728,-0.0744,-0.0752,-0.0779,-0.0802,-0.0821,-0.0847,-0.0867,-0.09,-0.0941,-0.0992,-0.1034,-0.1097,-0.1152,-0.1178,-0.1177,-0.1217,-0.123,-0.123,-0.1218,-0.122,-0.1219,-0.1218,-0.1224,-0.1224,-0.1224,0,0,-0.0718,-0.0729,-0.0725,-0.0742,-0.0772,-0.0802,-0.0804,-0.085,-0.0882,-0.0929,-0.098,-0.1028,-0.1103,-0.1158,-0.1196,-0.1225,-0.1223,-0.1248,-0.1238,-0.1241,-0.124,-0.1239,-0.1205,-0.1201,-0.1251,-0.1251,-0.1251,0,-0.0722,-0.0717,-0.0731,-0.0731,-0.0752,-0.079,-0.0802,-0.084,-0.0902,-0.093,-0.0944,-0.1055,-0.1108,-0.1183,-0.1205,-0.1229,-0.1212,-0.1228,-0.124,-0.1239,-0.1238,-0.1204,-0.1199,-0.125,-0.125,-0.125,-0.1251,0,-0.0703,-0.0708,-0.0705,-0.0721,-0.0741,-0.0754,-0.0809,-0.0837,-0.0878,-0.0924,-0.0992,-0.1058,-0.1118,-0.1158,-0.1196,-0.1233,-0.1215,-0.1237,-0.1229,-0.1237,-0.12,-0.1196,-0.125,-0.125,-0.125,-0.125,0,0,-0.0698,-0.0696,-0.0695,-0.07,-0.0735,-0.075,-0.0798,-0.0853,-0.0878,-0.0944,-0.0976,-0.1087,-0.1104,-0.1146,-0.1198,-0.1215,-0.1201,-0.1222,-0.1222,-0.1174,-0.1171,-0.1085,-0.1072,-0.1222,-0.1221,-0.1221,-0.1141,0,-0.0687,-0.0676,-0.0686,-0.07,-0.0703,-0.0748,-0.0789,-0.0843,-0.089,-0.0927,-0.1002,-0.1047,-0.1108,-0.1124,-0.1156,-0.1193,-0.1192,-0.1218,-0.1183,-0.1181,-0.1093,-0.1065,-0.0959,-0.0872,-0.1137,-0.1136,-0.1135,0,-0.0663,-0.0657,-0.0657,-0.0683,-0.0688,-0.0706,-0.0755,-0.0797,-0.0862,-0.0894,-0.0942,-0.0987,-0.1042,-0.1073,-0.1122,-0.1132,-0.1143,-0.1163,-0.1161,-0.1078,-0.1087,-0.0913,-0.0854,-0.0851,-0.1128,-0.1129,-0.1129,0,-0.0634,-0.0642,-0.0639,-0.0646,-0.068,-0.0693,-0.0719,-0.078,-0.0802,-0.085,-0.0841,-0.0928,-0.0932,-0.0986,-0.1037,-0.1072,-0.1051,-0.1106,-0.1032,-0.1025,-0.0924,-0.0909,-0.0844,-0.1107,-0.1107,-0.1108,-0.1108,0,-0.0618,-0.0618,-0.0617,-0.0614,-0.0611,-0.0652,-0.066,-0.0698,-0.0729,-0.0722,-0.0804,-0.0787,-0.0906,-0.0919,-0.0987,-0.0972,-0.1006,-0.1003,-0.0996,-0.0916,-0.0901,-0.0888,-0.0922,-0.1104,-0.1105,-0.1106,-0.1106,0,-0.0598,-0.0599,-0.0589,-0.0597,-0.0593,-0.059,-0.0599,-0.0602,-0.0633,-0.061,-0.061,-0.0663,-0.0663,-0.0755,-0.0813,-0.0868,-0.0858,-0.0877,-0.0753,-0.0732,-0.0672,-0.071,-0.0625,-0.0617,-0.0782,-0.0779,-0.0777,0,-0.0598,-0.0581,-0.0553,-0.0531,-0.053,-0.0522,-0.0511,-0.0547,-0.0537,-0.052,-0.0492,-0.0481,-0.0452,-0.0492,-0.0569,-0.0621,-0.0703,-0.0581,-0.0644,-0.0621,-0.066,-0.0698,-0.0702,-0.0503,-0.0498,-0.0495,-0.0492,0,-0.059,-0.0566,-0.055,-0.0485,-0.0456,-0.0431,-0.0412,-0.0382,-0.0399,-0.0348,-0.0276,-0.024,-0.024,-0.0226,-0.0295,-0.0358,-0.0535,-0.0508,-0.0527,-0.0453,-0.0448,-0.0451,-0.059,-0.0461,-0.0464,-0.0466,-0.0468,-0.0469,-0.0581,-0.0563,-0.0513,-0.045,-0.04,-0.0338,-0.03,-0.0256,-0.0189,-0.0093,-0.0089,0.0025,0.0023,-0.0034,-0.0109,-0.017,-0.0268,-0.022,-0.027,-0.0311,-0.0293,-0.0336,-0.0182,-0.0183,-0.0185,-0.0186,-0.0187,0,-0.0572,-0.0535,-0.0483,-0.0405,-0.0313,-0.0304,-0.0231,-0.017,-0.0043,0.0072,0.0166,0.0284,0.0302,0.0217,0.014,0.0072,-0.0009,0.0005,-0.0041,-0.0065,-0.0117,-0.0094,0.0138,0.0138,0.0138,0.0138,0.0138,0.0138,-0.057,-0.0519,-0.0484,-0.0336,-0.0262,-0.0163,-0.0106,0.0005,0.0103,0.0306,0.0425,0.0476,0.0435,0.0331,0.0241,0.0194,0.0097,0.0124,0.0019,-0.0034,-0.0061,-0.0086,-0.0072,0.0161,0.0161,0.0119,0.0118,0.0118]}],[{"header":{"parameterUnit":"m.s-1","parameterCategory":2,"la1":30.2991,"la2":30.254,"lo1":-89.0895,"lo2":-89.0444,"dy":0.0017,"dx":0.0017,"nx":28,"ny":28,"refTime":"2025-01-03T03:00:00:Z","depth":"2","parameterNumber":2,"parameterNumberName":"U-component_of_CURRENTS"},"data":[0,0,0,0,0,0,0,0,0,0,0,0,0,0,0,0,0,0,0,0,0,0,0,0,0,0,0,0,0,0,0,0,0,0,0,0,0,0,0,0,0,0,0,0,0,0,0,0,0,0,0,0,0,0,0,0,0,0,0.1222,0.1223,0,0.1232,0.1231,0.1231,0.1233,0.1234,0.1234,0.1235,0.1265,0.1265,0.1265,0,0,0,0,0,0,0,0,0,0,0,0,0,0.1195,0.1195,0.1222,0.1223,0.1224,0.1232,0.1231,0.1231,0.1233,0.1234,0.1234,0.1235,0.1265,0.1265,0.1265,0,0,0,0,0,0,0,0,0,0,0,0,0,0.1198,0.1195,0.1222,0.1232,0.1233,0.1232,0.1231,0.1231,0.1233,0.1234,0.1235,0.1235,0.1265,0.1265,0.1265,0.1247,0,0,0.1266,0.1266,0,0,0,0,0,0,0,0,0.1198,0.1198,0.1229,0.1231,0.1233,0.1239,0.1233,0.124,0.1232,0.1224,0.1235,0.1236,0.1263,0.1263,0.1251,0.1249,0.125,0.1266,0.1266,0.1266,0.1267,0,0,0,0,0,0,0,0.1198,0.1198,0.1218,0.1231,0.1233,0.1233,0.1233,0.1234,0.1232,0.1225,0.1227,0.1241,0.1263,0.1251,0.1252,0.125,0.1266,0.1266,0.1267,0.1267,0.131,0.1311,0,0,0,0,0,0,0.1212,0.1198,0.1218,0.1219,0.1227,0.1233,0.1234,0.123,0.1232,0.1235,0.124,0.1241,0.125,0.1252,0.1253,0.1304,0.1266,0.1267,0.1267,0.1309,0.131,0.1311,0,0,0,0,0,0,0.1211,0.1213,0.1218,0.1216,0.1218,0.1233,0.1229,0.123,0.1241,0.1244,0.1247,0.1254,0.1251,0.1253,0.1269,0.1303,0.1267,0.1267,0.1308,0.1309,0.131,0.136,0,0,0,0,0,0,0.121,0.1212,0.1214,0.1216,0.1219,0.1224,0.1229,0.1229,0.125,0.1252,0.1257,0.1259,0.1252,0.1268,0.1269,0.1303,0.1267,0.1306,0.1308,0.131,0.1357,0.1363,0.1368,0,0,0,0,0,0.1209,0.1214,0.1213,0.1217,0.122,0.1225,0.1224,0.1234,0.125,0.1248,0.1259,0.126,0.1281,0.1269,0.1269,0.1304,0.1305,0.1308,0.131,0.1355,0.1362,0.1368,0,0,0,0,0,0,0.1204,0.1215,0.1215,0.1223,0.1227,0.1228,0.1235,0.1246,0.125,0.1256,0.1263,0.1265,0.1299,0.1288,0.1275,0.1322,0.1297,0.13,0.1332,0.1338,0.1344,0.1363,0.1268,0,0,0,0,0,0.1204,0.121,0.1216,0.1223,0.1225,0.1232,0.124,0.1243,0.1251,0.1254,0.1266,0.128,0.1303,0.131,0.1319,0.1333,0.1331,0.1359,0.1365,0.1369,0.1385,0.1415,0.1425,0.1318,0.1318,0.1318,0,0,0.1204,0.1215,0.1216,0.1223,0.1225,0.1232,0.1237,0.1246,0.1259,0.1257,0.1281,0.13,0.1312,0.1337,0.1351,0.1334,0.1393,0.1372,0.1376,0.139,0.1418,0.1429,0.1438,0.132,0.1319,0.1319,0,0,0.1208,0.1213,0.1215,0.1221,0.1234,0.124,0.1251,0.1258,0.1265,0.1287,0.1303,0.1346,0.1359,0.1383,0.1398,0.1438,0.1426,0.144,0.1478,0.1507,0.1516,0.1524,0.1511,0.1517,0.1437,0.1437,0.1437,0,0.1209,0.121,0.1217,0.1225,0.1234,0.125,0.1253,0.1264,0.128,0.1302,0.1302,0.1379,0.1389,0.1447,0.1464,0.1455,0.1449,0.1452,0.1515,0.1523,0.1531,0.1515,0.1522,0.1439,0.1439,0.1439,0.1438,0,0.1208,0.1215,0.122,0.1234,0.1242,0.1248,0.1266,0.1288,0.1315,0.1339,0.1405,0.1426,0.148,0.1492,0.1492,0.1559,0.1529,0.1523,0.1499,0.1545,0.1524,0.1531,0.1443,0.1442,0.1441,0.1441,0,0,0.1199,0.1213,0.1218,0.1225,0.1244,0.1254,0.1284,0.1319,0.1365,0.14,0.1461,0.1521,0.1557,0.1576,0.159,0.1616,0.166,0.1594,0.1594,0.1582,0.1692,0.1606,0.1604,0.1663,0.1665,0.1667,0.1647,0,0.1195,0.1207,0.1214,0.1235,0.1242,0.1268,0.13,0.1341,0.1385,0.145,0.1507,0.1566,0.1579,0.1613,0.1651,0.166,0.1682,0.1664,0.1649,0.1648,0.1569,0.1611,0.1443,0.1407,0.1653,0.1654,0.1655,0,0.1188,0.1202,0.1208,0.1243,0.1249,0.127,0.1335,0.1364,0.1455,0.149,0.1574,0.1619,0.1689,0.1684,0.174,0.1724,0.1723,0.1721,0.172,0.1632,0.1576,0.1407,0.1409,0.1665,0.1664,0.1663,0.1663,0,0.1178,0.1202,0.1209,0.1217,0.1258,0.1279,0.1311,0.1387,0.1425,0.1522,0.1577,0.1659,0.1696,0.1735,0.1757,0.1747,0.1795,0.1773,0.1694,0.1685,0.1538,0.1513,0.182,0.182,0.182,0.182,0.182,0,0.1165,0.118,0.1211,0.1217,0.1252,0.128,0.1331,0.1381,0.146,0.1513,0.1606,0.166,0.1713,0.1755,0.1769,0.175,0.1808,0.1712,0.1688,0.1545,0.1523,0.1748,0.1739,0.1819,0.1819,0.1819,0.1819,0,0.1145,0.1162,0.1184,0.1227,0.1242,0.1271,0.1327,0.137,0.1452,0.1524,0.1556,0.1653,0.1686,0.1735,0.1762,0.1739,0.1743,0.1723,0.1531,0.1486,0.1602,0.1597,0.1615,0.1612,0.161,0.1607,0.1606,0,0.1135,0.1136,0.1182,0.12,0.1216,0.126,0.1286,0.1355,0.1383,0.1513,0.1534,0.1609,0.1626,0.1644,0.1607,0.1591,0.1687,0.1428,0.139,0.1613,0.1588,0.1587,0.1585,0.1198,0.1194,0.119,0.1186,0,0.1113,0.1128,0.1144,0.1176,0.1202,0.1234,0.1265,0.1287,0.1363,0.1409,0.1454,0.1483,0.149,0.1374,0.1362,0.1348,0.1416,0.1343,0.1644,0.1279,0.122,0.1195,0.1208,0.115,0.1154,0.1157,0.1159,0.116,0.1098,0.1102,0.1119,0.1155,0.118,0.1198,0.1192,0.1215,0.1235,0.1254,0.1299,0.1259,0.1235,0.1105,0.1079,0.1068,0.1176,0.1113,0.1126,0.1143,0.1101,0.1042,0.0929,0.0931,0.0933,0.0934,0.0936,0,0.1065,0.1083,0.1097,0.1118,0.1115,0.116,0.1164,0.1125,0.1096,0.1081,0.1052,0.0894,0.0797,0.083,0.0725,0.0714,0.0727,0.0704,0.0699,0.0733,0.0764,0.0705,0.0426,0.0425,0.0424,0.0423,0,0,0.104,0.1031,0.1035,0.1041,0.1065,0.1034,0.1023,0.0966,0.0914,0.0817,0.0734,0.0711,0.0741,0.0546,0.0527,0.0458,0.0602,0.044,0.084,0.0865,0.0895,0.0982,0.0926,0,0,0,0,0]},{"header":{"parameterUnit":"m.s-1","parameterCategory":2,"la1":30.2991,"la2":30.254,"lo1":-89.0895,"lo2":-89.0444,"dy":0.0017,"dx":0.0017,"nx":28,"ny":28,"refTime":"2025-01-03T03:00:00:Z","depth":"2","parameterNumber":3,"parameterNumberName":"V-component_of_CURRENTS"},"data":[0,0,0,0,0,0,0,0,0,0,0,0,0,0,0,0,0,0,0,0,0,0,0,0,0,0,0,0,0,0,0,0,0,0,0,0,0,0,0,0,0,0,0,0,0,0,0,0,0,0,0,0,0,0,0,0,0,0,0.0171,0.0171,0,0.0231,0.0232,0.0233,0.0244,0.0244,0.0243,0.0242,0.019,0.0189,0.0188,0,0,0,0,0,0,0,0,0,0,0,0,0,0.0105,0.0107,0.0171,0.0171,0.0172,0.0231,0.0232,0.0233,0.0244,0.0244,0.0243,0.0242,0.019,0.0189,0.0188,0,0,0,0,0,0,0,0,0,0,0,0,0,0.0148,0.0107,0.0171,0.0183,0.0185,0.0231,0.0232,0.0234,0.0245,0.0244,0.0243,0.0242,0.019,0.0189,0.0188,0.0201,0,0,0.0184,0.0184,0,0,0,0,0,0,0,0,0.0146,0.0151,0.0181,0.0182,0.0184,0.0227,0.019,0.0216,0.0245,0.0224,0.0242,0.0241,0.0191,0.019,0.0208,0.0198,0.0196,0.0184,0.0184,0.0183,0.0183,0,0,0,0,0,0,0,0.0143,0.0149,0.0197,0.0181,0.0184,0.02,0.0204,0.0196,0.0212,0.0226,0.0226,0.023,0.0191,0.0209,0.0206,0.0195,0.0184,0.0183,0.0182,0.0182,0.0155,0.0155,0,0,0,0,0,0,0.0131,0.0146,0.0195,0.0198,0.016,0.0201,0.0207,0.0216,0.0215,0.0214,0.0231,0.023,0.0212,0.0208,0.0204,0.0198,0.0183,0.0182,0.0181,0.0155,0.0155,0.0155,0,0,0,0,0,0,0.0129,0.0135,0.0192,0.0171,0.018,0.0203,0.0214,0.0218,0.0224,0.0219,0.0216,0.023,0.0211,0.0206,0.0192,0.0196,0.0181,0.018,0.0155,0.0155,0.0155,0.0198,0,0,0,0,0,0,0.0127,0.0134,0.0133,0.0171,0.018,0.0217,0.0215,0.022,0.0227,0.0227,0.0218,0.0213,0.021,0.0194,0.0191,0.0194,0.0179,0.0155,0.0155,0.0155,0.0196,0.0199,0.0202,0,0,0,0,0,0.0125,0.0131,0.0133,0.0138,0.0179,0.0217,0.0224,0.0238,0.0228,0.0238,0.0227,0.0213,0.0191,0.0193,0.019,0.0193,0.0155,0.0155,0.0155,0.0195,0.0199,0.0201,0,0,0,0,0,0,0.0106,0.0134,0.0136,0.0151,0.0178,0.0218,0.0226,0.0233,0.0237,0.0231,0.0217,0.0212,0.0203,0.0188,0.019,0.0183,0.0169,0.0168,0.02,0.0203,0.0206,0.0216,0.0178,0,0,0,0,0,0.01,0.0108,0.0142,0.0152,0.0164,0.0191,0.0204,0.022,0.0231,0.0233,0.0221,0.0208,0.0204,0.0194,0.0189,0.0184,0.0179,0.018,0.0183,0.0186,0.019,0.019,0.0193,0.0155,0.0155,0.0155,0,0,0.0096,0.011,0.0116,0.0147,0.0168,0.0199,0.0197,0.0224,0.0249,0.0224,0.0233,0.0217,0.0205,0.0207,0.02,0.0191,0.0195,0.0185,0.0188,0.0191,0.019,0.0194,0.0197,0.0155,0.0155,0.0155,0,0,0.0104,0.0105,0.0122,0.0141,0.0172,0.0197,0.02,0.0234,0.0246,0.0258,0.0246,0.0232,0.0219,0.022,0.0218,0.0227,0.0211,0.0214,0.0234,0.0234,0.0238,0.0241,0.0247,0.025,0.0213,0.0213,0.0213,0,0.0101,0.0124,0.0133,0.0155,0.0178,0.0193,0.023,0.025,0.0271,0.0279,0.026,0.0251,0.0233,0.0246,0.0246,0.0235,0.0231,0.0227,0.0239,0.0242,0.0244,0.025,0.0253,0.0215,0.0215,0.0215,0.0214,0,0.0127,0.0143,0.0154,0.0188,0.0215,0.0245,0.0279,0.0296,0.0299,0.0311,0.0315,0.0298,0.0288,0.028,0.0265,0.0272,0.0263,0.0247,0.0236,0.0251,0.0256,0.0258,0.0218,0.0217,0.0217,0.0216,0,0,0.0133,0.0169,0.017,0.0194,0.0237,0.0266,0.0306,0.0351,0.0368,0.0368,0.0387,0.0372,0.0344,0.0338,0.0316,0.0311,0.032,0.0282,0.0281,0.0297,0.0323,0.0304,0.0304,0.0304,0.0304,0.0305,0.0323,0,0.0157,0.0202,0.0219,0.0268,0.0301,0.0328,0.037,0.0403,0.041,0.0423,0.0412,0.0406,0.0374,0.0358,0.0352,0.0329,0.0327,0.0317,0.0298,0.0297,0.0286,0.0306,0.0319,0.0335,0.0325,0.0325,0.0326,0,0.0184,0.0209,0.0263,0.032,0.0338,0.0366,0.0425,0.0466,0.0487,0.0484,0.0474,0.0451,0.0445,0.0407,0.0392,0.0385,0.0354,0.0337,0.0337,0.0305,0.0282,0.0315,0.0339,0.033,0.0329,0.0329,0.0329,0,0.0197,0.0244,0.0288,0.0303,0.0368,0.0396,0.0436,0.0474,0.0502,0.0508,0.0493,0.0497,0.0489,0.046,0.0406,0.0399,0.0387,0.0376,0.0338,0.0336,0.0337,0.0335,0.0364,0.0364,0.0364,0.0364,0.0364,0,0.0227,0.0256,0.0286,0.0311,0.0363,0.0406,0.046,0.0488,0.0517,0.0549,0.0509,0.0519,0.0498,0.0479,0.0431,0.0393,0.0407,0.035,0.0341,0.0352,0.035,0.0332,0.0328,0.0364,0.0364,0.0364,0.0364,0,0.0248,0.0264,0.0308,0.0358,0.0373,0.0409,0.0471,0.0513,0.0513,0.0548,0.0544,0.0544,0.0531,0.0488,0.0464,0.0427,0.0386,0.0362,0.0378,0.037,0.0336,0.0334,0.0349,0.0349,0.0348,0.0348,0.0348,0,0.027,0.0291,0.0333,0.0353,0.0371,0.0422,0.0478,0.0513,0.0567,0.0569,0.0605,0.0575,0.0598,0.054,0.0475,0.041,0.0379,0.0365,0.0352,0.0346,0.0335,0.0334,0.0332,0.0377,0.0377,0.0377,0.0377,0,0.0311,0.0313,0.0358,0.0383,0.0421,0.0479,0.0556,0.0584,0.0646,0.0662,0.0707,0.0706,0.0648,0.0613,0.0496,0.0444,0.0379,0.0362,0.0359,0.0369,0.0371,0.036,0.0359,0.0377,0.0377,0.0377,0.0377,0.0377,0.0343,0.0378,0.0414,0.0431,0.0475,0.0536,0.0594,0.0674,0.0747,0.0791,0.0809,0.0789,0.0733,0.0588,0.0491,0.0365,0.0387,0.0351,0.0352,0.0352,0.0343,0.0342,0.0342,0.0342,0.0342,0.0342,0.0342,0,0.0407,0.0423,0.0459,0.0511,0.0556,0.0553,0.0661,0.0719,0.0815,0.0842,0.0888,0.0783,0.0723,0.0591,0.0423,0.0354,0.0345,0.0307,0.0323,0.0325,0.0327,0.0315,0.0308,0.0307,0.0306,0.0306,0,0,0.0453,0.0504,0.0516,0.0568,0.0589,0.0669,0.0719,0.0786,0.0827,0.0855,0.0835,0.0853,0.0722,0.059,0.0496,0.039,0.0365,0.0362,0.0405,0.044,0.0442,0.0376,0.0364,0,0,0,0,0]}],[{"header":{"parameterUnit":"m.s-1","parameterCategory":2,"la1":30.2991,"la2":30.254,"lo1":-89.0895,"lo2":-89.0444,"dy":0.0017,"dx":0.0017,"nx":28,"ny":28,"refTime":"2025-01-03T03:00:00:Z","depth":"4","parameterNumber":2,"parameterNumberName":"U-component_of_CURRENTS"},"data":[0,0,0,0,0,0,0,0,0,0,0,0,0,0,0,0,0,0,0,0,0,0,0,0,0,0,0,0,0,0,0,0,0,0,0,0,0,0,0,0,0,0,0,0,0,0,0,0,0,0,0,0,0,0,0,0,0,0,0.0337,0.0337,0,0.0314,0.0314,0.0314,0.0293,0.0293,0.0293,0.0292,0.0308,0.0309,0.0309,0,0,0,0,0,0,0,0,0,0,0,0,0,0.0378,0.0378,0.0337,0.0337,0.0336,0.0314,0.0314,0.0314,0.0294,0.0293,0.0293,0.0292,0.0308,0.0309,0.0309,0,0,0,0,0,0,0,0,0,0,0,0,0,0.0359,0.0377,0.0337,0.0323,0.0321,0.0314,0.0314,0.0314,0.0294,0.0293,0.0293,0.0292,0.0307,0.0309,0.031,0.0326,0,0,0.0313,0.0313,0,0,0,0,0,0,0,0,0.0361,0.0358,0.0325,0.0324,0.0322,0.0305,0.0334,0.032,0.0294,0.0305,0.0292,0.0292,0.031,0.0311,0.0309,0.0327,0.0328,0.0313,0.0314,0.0314,0.0314,0,0,0,0,0,0,0,0.0362,0.0359,0.0329,0.0325,0.0323,0.0323,0.0319,0.0331,0.0312,0.0304,0.0302,0.0298,0.031,0.0308,0.0309,0.0328,0.0313,0.0314,0.0315,0.0315,0.0377,0.0378,0,0,0,0,0,0,0.0362,0.036,0.033,0.0328,0.0339,0.0322,0.0319,0.0312,0.0311,0.031,0.0299,0.0298,0.0306,0.0308,0.031,0.0334,0.0314,0.0315,0.0316,0.0376,0.0377,0.0378,0,0,0,0,0,0,0.0363,0.036,0.0331,0.0343,0.0339,0.0322,0.0315,0.0312,0.0318,0.0307,0.0306,0.0309,0.0306,0.0308,0.032,0.0334,0.0316,0.0317,0.0375,0.0377,0.0378,0.0379,0,0,0,0,0,0,0.0364,0.036,0.0364,0.0343,0.0339,0.033,0.0315,0.0312,0.0315,0.0314,0.0315,0.0315,0.0306,0.0318,0.0321,0.0335,0.0318,0.0374,0.0376,0.0377,0.0378,0.0381,0.0383,0,0,0,0,0,0.0366,0.0365,0.0364,0.036,0.0341,0.033,0.0328,0.0315,0.0317,0.032,0.0318,0.0316,0.0332,0.032,0.0323,0.0338,0.0373,0.0375,0.0377,0.0377,0.038,0.0383,0,0,0,0,0,0,0.0379,0.0362,0.036,0.0354,0.0346,0.0326,0.0332,0.0326,0.0328,0.0334,0.0323,0.0323,0.0341,0.0344,0.033,0.0363,0.0355,0.0358,0.0354,0.0357,0.036,0.0365,0.0318,0,0,0,0,0,0.0386,0.0386,0.0368,0.0366,0.0367,0.0356,0.0354,0.0347,0.0341,0.0342,0.0342,0.0348,0.0352,0.0358,0.0364,0.0382,0.0398,0.0398,0.04,0.0402,0.041,0.0447,0.0453,0.0386,0.0386,0.0386,0,0,0.0389,0.0382,0.0381,0.037,0.0369,0.0365,0.0355,0.0358,0.0354,0.0346,0.0354,0.0359,0.036,0.0372,0.0382,0.0376,0.0429,0.0405,0.0406,0.0413,0.045,0.0456,0.0462,0.0387,0.0387,0.0387,0,0,0.0394,0.0395,0.0397,0.0394,0.0394,0.0385,0.039,0.0383,0.0381,0.0388,0.0381,0.0392,0.0405,0.0399,0.0399,0.0425,0.0441,0.0438,0.0452,0.0488,0.0493,0.0498,0.052,0.0527,0.0438,0.0438,0.0438,0,0.0401,0.0397,0.0396,0.0398,0.0397,0.0396,0.0396,0.0394,0.039,0.0394,0.0394,0.0417,0.0414,0.0423,0.0427,0.0429,0.0454,0.0435,0.049,0.0496,0.0501,0.0522,0.0529,0.0439,0.0439,0.0439,0.0439,0,0.0402,0.0405,0.041,0.0411,0.0409,0.0414,0.0406,0.0417,0.0424,0.0418,0.044,0.0439,0.0455,0.0455,0.0445,0.0482,0.0489,0.0488,0.0479,0.0508,0.0528,0.0536,0.0439,0.0439,0.0439,0.0439,0,0,0.0404,0.0409,0.0414,0.0416,0.0419,0.0415,0.0424,0.0425,0.0437,0.0446,0.0464,0.0467,0.0483,0.0486,0.0485,0.0508,0.0553,0.0518,0.052,0.0532,0.0635,0.0569,0.0571,0.0571,0.0572,0.0574,0.0631,0,0.0409,0.0413,0.0414,0.042,0.042,0.0427,0.0431,0.0436,0.0447,0.0468,0.0478,0.05,0.0489,0.051,0.053,0.0551,0.0577,0.0538,0.0612,0.0614,0.0546,0.0579,0.0579,0.0637,0.0639,0.064,0.0641,0,0.0409,0.0413,0.0419,0.0424,0.0427,0.0435,0.0455,0.0458,0.0482,0.0496,0.0526,0.054,0.0572,0.0567,0.0622,0.0605,0.0627,0.0638,0.0641,0.0586,0.0563,0.0606,0.0656,0.0655,0.0654,0.0653,0.0652,0,0.0404,0.0414,0.0421,0.0423,0.043,0.0447,0.0458,0.0476,0.0486,0.0531,0.0557,0.0591,0.0629,0.0661,0.068,0.0669,0.0741,0.0726,0.0686,0.0681,0.0722,0.0716,0.0779,0.0778,0.0778,0.0778,0.0778,0,0.0398,0.0407,0.0427,0.0432,0.0448,0.0455,0.0481,0.0498,0.0531,0.0547,0.0584,0.0608,0.0662,0.0699,0.0708,0.0719,0.0769,0.0697,0.0696,0.072,0.0713,0.0727,0.072,0.078,0.078,0.0779,0.0779,0,0.0385,0.04,0.0409,0.0433,0.0446,0.046,0.0495,0.0507,0.055,0.058,0.0603,0.0651,0.0695,0.0729,0.0782,0.0755,0.0767,0.0761,0.0784,0.0782,0.0677,0.067,0.0723,0.0721,0.0719,0.0718,0.0717,0,0.0371,0.0378,0.0411,0.0421,0.0439,0.0466,0.048,0.0516,0.0527,0.0588,0.0596,0.0666,0.069,0.071,0.0746,0.0766,0.0754,0.0758,0.0713,0.0679,0.0674,0.0669,0.0664,0.0715,0.0714,0.0714,0.0713,0,0.0347,0.0372,0.0384,0.0405,0.0428,0.0434,0.0462,0.0472,0.051,0.0563,0.0577,0.0599,0.0648,0.0672,0.0704,0.0709,0.075,0.0742,0.0745,0.0703,0.0671,0.0665,0.0662,0.0708,0.0709,0.071,0.071,0,0.0335,0.0339,0.0363,0.0377,0.0399,0.0391,0.041,0.0423,0.0442,0.0511,0.0514,0.0576,0.0635,0.0643,0.0661,0.0672,0.0656,0.0626,0.0634,0.064,0.0585,0.053,0.0533,0,0,0,0,0,0.0315,0.0318,0.0326,0.0333,0.0353,0.0362,0.0386,0.0403,0.0457,0.0449,0.0478,0.0511,0.0542,0.057,0.0566,0.0626,0.0661,0.0617,0.063,0.068,0.0686,0.0627,0,0,0,0,0,0,0.0302,0.0317,0.0313,0.0294,0.0295,0.03,0.0314,0.0345,0.034,0.0404,0.0423,0.0474,0.0515,0.0546,0.0557,0.0567,0.056,0.0658,0.0657,0.0676,0.0682,0.0687,0.0628,0,0,0,0,0]},{"header":{"parameterUnit":"m.s-1","parameterCategory":2,"la1":30.2991,"la2":30.254,"lo1":-89.0895,"lo2":-89.0444,"dy":0.0017,"dx":0.0017,"nx":28,"ny":28,"refTime":"2025-01-03T03:00:00:Z","depth":"4","parameterNumber":3,"parameterNumberName":"V-component_of_CURRENTS"},"data":[0,0,0,0,0,0,0,0,0,0,0,0,0,0,0,0,0,0,0,0,0,0,0,0,0,0,0,0,0,0,0,0,0,0,0,0,0,0,0,0,0,0,0,0,0,0,0,0,0,0,0,0,0,0,0,0,0,0,0.0389,0.039,0,0.0432,0.0432,0.0433,0.0446,0.0446,0.0445,0.0445,0.0443,0.0443,0.0443,0,0,0,0,0,0,0,0,0,0,0,0,0,0.033,0.033,0.0389,0.039,0.0391,0.0432,0.0433,0.0433,0.0446,0.0446,0.0445,0.0445,0.0443,0.0443,0.0443,0,0,0,0,0,0,0,0,0,0,0,0,0,0.0361,0.0331,0.0389,0.0402,0.0404,0.0432,0.0433,0.0433,0.0446,0.0446,0.0445,0.0445,0.0443,0.0443,0.0443,0.0449,0,0,0.0444,0.0444,0,0,0,0,0,0,0,0,0.036,0.0364,0.04,0.0402,0.0403,0.0434,0.0411,0.0436,0.0446,0.0429,0.0445,0.0445,0.0437,0.0437,0.0445,0.0449,0.0449,0.0444,0.0444,0.0444,0.0444,0,0,0,0,0,0,0,0.0357,0.0362,0.0406,0.0401,0.0403,0.041,0.0414,0.0416,0.0432,0.0431,0.0432,0.0438,0.0437,0.0445,0.0445,0.0449,0.0444,0.0444,0.0444,0.0444,0.0465,0.0465,0,0,0,0,0,0,0.0353,0.036,0.0404,0.0407,0.0381,0.0411,0.0416,0.0424,0.0433,0.0435,0.0438,0.0438,0.0445,0.0445,0.0445,0.0467,0.0444,0.0444,0.0444,0.0464,0.0465,0.0465,0,0,0,0,0,0,0.0352,0.0357,0.0402,0.0385,0.0391,0.0412,0.0421,0.0425,0.0439,0.044,0.044,0.0449,0.0445,0.0445,0.0449,0.0466,0.0444,0.0444,0.0464,0.0465,0.0465,0.0501,0,0,0,0,0,0,0.035,0.0356,0.0365,0.0384,0.0392,0.0417,0.0422,0.0426,0.0443,0.0444,0.0449,0.0449,0.0445,0.0449,0.0449,0.0466,0.0444,0.0463,0.0464,0.0465,0.0499,0.0503,0.0506,0,0,0,0,0,0.0348,0.0362,0.0365,0.0371,0.0402,0.0417,0.0422,0.0435,0.0444,0.0448,0.0453,0.0449,0.0455,0.0449,0.0449,0.0467,0.0463,0.0464,0.0465,0.0498,0.0502,0.0506,0,0,0,0,0,0,0.0341,0.0365,0.0369,0.039,0.04,0.042,0.0431,0.0441,0.0451,0.0455,0.0453,0.0453,0.0463,0.0458,0.0452,0.0475,0.0459,0.046,0.0484,0.0488,0.0491,0.0499,0.0445,0,0,0,0,0,0.0343,0.036,0.0376,0.0392,0.0398,0.0416,0.0427,0.0436,0.0447,0.0453,0.0455,0.046,0.0468,0.0471,0.0472,0.0484,0.0468,0.0496,0.0499,0.0502,0.0509,0.049,0.0492,0.0469,0.0469,0.0469,0,0,0.0346,0.036,0.0371,0.0391,0.0403,0.0419,0.0422,0.0441,0.0457,0.045,0.0469,0.047,0.0472,0.0486,0.0491,0.0485,0.0501,0.0503,0.0506,0.0511,0.0491,0.0494,0.0496,0.047,0.047,0.0469,0,0,0.0358,0.037,0.0387,0.0396,0.0416,0.0427,0.0433,0.0452,0.0463,0.048,0.0482,0.0491,0.05,0.0508,0.0513,0.0535,0.0516,0.0537,0.0566,0.0548,0.0549,0.0551,0.0534,0.0533,0.0542,0.0542,0.0542,0,0.0361,0.0383,0.0393,0.0407,0.0422,0.0431,0.0451,0.0463,0.0482,0.0494,0.0487,0.0513,0.0512,0.0539,0.055,0.0544,0.0529,0.0551,0.0552,0.0553,0.0554,0.0536,0.0535,0.0544,0.0544,0.0544,0.0544,0,0.038,0.04,0.041,0.0433,0.0447,0.0465,0.0481,0.0496,0.051,0.0523,0.0546,0.0546,0.0562,0.0566,0.0568,0.0584,0.057,0.0555,0.0542,0.0558,0.0539,0.0537,0.0547,0.0546,0.0546,0.0545,0,0,0.0388,0.0419,0.0424,0.0441,0.0465,0.048,0.0506,0.0534,0.0556,0.0566,0.0592,0.061,0.0611,0.0617,0.0618,0.0612,0.0606,0.0593,0.0591,0.0577,0.0567,0.0531,0.0526,0.0589,0.0589,0.0589,0.0551,0,0.0403,0.0436,0.045,0.0485,0.0505,0.0521,0.0546,0.057,0.0586,0.0607,0.0616,0.0636,0.063,0.0642,0.0635,0.0615,0.0603,0.0618,0.0553,0.0551,0.0517,0.0523,0.0589,0.0549,0.0549,0.0549,0.0548,0,0.0419,0.0442,0.0478,0.0518,0.0529,0.0552,0.0594,0.0618,0.0645,0.0655,0.0673,0.0674,0.0686,0.0666,0.0639,0.0648,0.0613,0.059,0.0587,0.0541,0.0512,0.0529,0.0545,0.0545,0.0545,0.0546,0.0546,0,0.0423,0.0463,0.0495,0.0507,0.0551,0.0576,0.0603,0.0635,0.0663,0.0687,0.0704,0.0706,0.0713,0.0674,0.0636,0.0635,0.0588,0.0574,0.0508,0.0505,0.0533,0.0532,0.0541,0.0541,0.0541,0.0541,0.0542,0,0.0434,0.0461,0.05,0.052,0.0564,0.059,0.0638,0.0661,0.0697,0.0726,0.0731,0.0744,0.0714,0.0687,0.0641,0.0572,0.0587,0.0515,0.0493,0.0549,0.055,0.0531,0.0531,0.054,0.054,0.0541,0.0541,0,0.0435,0.0458,0.0498,0.0549,0.0568,0.06,0.0663,0.0695,0.0725,0.0761,0.0772,0.0775,0.0738,0.0696,0.0631,0.0577,0.0513,0.0481,0.0549,0.0532,0.0441,0.0443,0.0404,0.0402,0.0401,0.04,0.0399,0,0.0439,0.0458,0.0516,0.0542,0.0569,0.0621,0.066,0.0707,0.0737,0.0774,0.0788,0.0774,0.0763,0.0645,0.0597,0.0499,0.048,0.044,0.044,0.0444,0.0427,0.0431,0.0435,0.0397,0.0396,0.0396,0.0396,0,0.0448,0.0466,0.0501,0.0552,0.0597,0.0647,0.0702,0.0721,0.0769,0.0798,0.0786,0.0742,0.0697,0.0624,0.0551,0.0481,0.0464,0.0426,0.0428,0.0428,0.0435,0.042,0.0425,0.0391,0.0392,0.0392,0.0392,0,0.0455,0.0475,0.0517,0.0561,0.0614,0.0658,0.0688,0.0719,0.075,0.0781,0.077,0.0734,0.072,0.0613,0.0546,0.0476,0.0452,0.0413,0.0415,0.042,0.0435,0.0447,0.0389,0,0,0,0,0,0.0461,0.0484,0.0524,0.0573,0.0622,0.0655,0.0712,0.0736,0.0772,0.0757,0.0763,0.0716,0.0619,0.0588,0.0509,0.0521,0.0444,0.0423,0.0401,0.0365,0.0371,0.0382,0,0,0,0,0,0,0.0466,0.0504,0.0522,0.0573,0.0604,0.0664,0.0698,0.0722,0.0712,0.0731,0.0683,0.0674,0.0587,0.0661,0.05,0.0483,0.045,0.0391,0.0388,0.0362,0.0367,0.0372,0.0385,0,0,0,0,0]}]]